STARLINK-32328, 62489

Orbit data source: Space-Track

STARLINK-32328, 62489 is a payload satellite owned by SpaceX/Seattle (US) in LEO that was launched on Mon, 06 Jan 2025 UTC via an FALCON 9 launch vehicle from the Air Force Eastern Test Range (AFETR). Payload-class satellites include a variety of spacecraft equipped with specific instruments for various scientific and technological missions. These include communications satellites like Starlink; space stations such as the ISS; scientific satellites like the Hubble; Earth observation satellites from companies like Planet Labs, Umbra, and HawkEye 360; GPS; miniature CubeSats for education and research; and military/defense satellites.

Loading next visibility...
Identifier
62489, 2025-003C
Orbit
LEO
Country
Flag of USUS
Related business
Manufacturer
SpaceX/Seattle
Mission
Operational Commercial Communications
Bus & Motor
STARLINK V2M, Unknown motor
Mass
730 kg wet, ~700 kg dry
Launch date (UTC)
2025-01-06 (1 year ago)
Launch vehicle
FALCON 9
Launch site
Air Force Eastern Test Range (AFETR)
Object type
Payload
Rocket body
Debris
Shape & HBR
Box + 2 Pan, 17.7 m
Radar Cross Section
33.884 m², Large (>1 m²)

Expand to show TLE details & history
Last TLE update: 10 hours ago

TLE from 10 hours ago
0 STARLINK-32328
1 62489U 25003C   26171.41668980 -.00031857  00000-0 -11525-2 0  9990
2 62489  43.0037  69.0914 0001694 271.9867 288.1173 15.27596371  5884
Epoch: 2026-06-20T10:00Z
TLE epoch observation values (Epoch: 2026-06-20T10:00:01.998Z)
Latitude
-13.67694°
Longitude
-154.50916°
Altitude
485.182 km
Speed
7.624 km/s
True Right ascension
17h 36m 31s
True Declination
-13° 35' 42"
Sunlit
Object was in full shadow at epoch
Visualization orbit readout
Latitude
Unknown
Longitude
Unknown
Altitude
Unknown
Speed
Unknown
Apparent Right ascension
Unknown
Apparent Declination
Unknown
Sunlit
N/A
Visualization observer readout
Local Sidereal Time
07:17:02
Azimuth
Unknown
Elevation
Unknown
Doppler factor
Unknown
Orbital elements
Apogee altitude
486.107 km
Perigee altitude
483.782 km
Semi-major axis
6,863.082 km
Eccentricity
0.00017
Inclination
43.0037°
RAAN
69.0914°
Arg. of periapsis
271.9867°
True anomaly
288.09885°
Mean anomaly
288.1173°
Eccentric anomaly
288.10807°
Mean motion
3.81737 °/min
Orbital period
94.31 mins
BSTAR
-0.0011525
Loading maneuver chart data...
Computing Atmospheric mass density...
Loading historical data...
Loading historical data...
Loading historical data...
Loading historical data...
Loading historical data...
Loading historical data...
Loading historical data...

Documentation

Showing up to 5 results
|